x

Sandberg (72383) Weather Station

10:53pm - Thu 27th Apr 2017 All times are PDT. -7 hours from GMT.

  • Wind
    8mph, 28mph gusts
  • Air Temp 52°f
  • Sea Pressure 1013.5mb
  • Sandberg
  • Sandberg

More Historic Weather Station data

Upgrade to MSW Pro to gain access to the past 30 days of data for over 8000 Wavebouys and Weather Stations around the globe.

Join Pro

Comparision Forecast

View Surf forecast
   
Thu 04/27 10:53pm 8 28 mph 1013.5mb 52f
9:53pm 8 38 mph 1013.5mb 52f
8:53pm 20 33 mph 1013.2mb 52f
7:53pm 25 43 mph 1013.2mb 54f
6:53pm 20 35 mph 1013.2mb 55f
6:07pm 21 30 mph 1013.5mb 55f
5:53pm 15 32 mph 1013.5mb 57f
5:09pm 17 48 mph 1013.5mb 59f
4:53pm 22 38 mph 1013.9mb 57f
4:26pm 18 37 mph 1014.2mb 58f
4:19pm 22 47 mph 1014.6mb 57f
3:53pm 12 28 mph 1014.2mb 59f
2:53pm  -  mph 1014.6mb 54f
2:51pm  -  mph 1014.6mb 54f
1:53pm 9 23 mph 1014.9mb 52f
12:53pm 17 24 mph 1015.2mb 48f
12:45pm  -  mph 1015.2mb 48f
12:28pm 8 20 mph 1015.6mb 48f
11:53am 8
mph
1015.6mb 48f
10:53am 9 29 mph 1015.6mb 46f
9:53am 12 27 mph 1014.9mb 46f
8:53am 7 21 mph 1014.9mb 46f
7:53am 15 31 mph 1014.6mb 48f
6:53am 25 43 mph 1014.2mb 48f
6:23am 15 32 mph 1013.9mb 49f
6:17am 10 31 mph 1014.2mb 49f
6:09am 22 31 mph 1013.9mb 49f
6:06am 14 32 mph 1013.9mb 48f
6:01am 22 32 mph 1013.9mb 49f
5:58am 23 32 mph 1013.5mb 48f
5:53am 14 37 mph 1013.9mb 48f
5:30am 18 32 mph 1014.2mb 50f
5:20am 15 36 mph 1014.2mb 50f
5:18am 8 36 mph 1014.2mb 50f
5:01am 25 38 mph 1014.2mb 50f
4:57am 25 38 mph 1013.9mb 50f
4:53am 20 37 mph 1013.9mb 50f
4:51am 18 37 mph 1013.9mb 50f
4:45am 25 37 mph 1013.9mb 50f
3:53am 27 35 mph 1014.2mb 50f
3:22am 18 39 mph 1014.2mb 51f
3:17am 25 35 mph 1014.2mb 52f
3:15am 21 33 mph 1014.2mb 52f
3:10am 21 41 mph 1014.2mb 52f
2:53am 13 28 mph 1014.2mb 52f
2:16am 15 32 mph 1014.9mb 51f
2:11am 21 32 mph 1014.9mb 52f
2:04am 14 35 mph 1014.9mb 52f
1:52am 16 32 mph 1014.9mb 52f
1:46am 17 32 mph 1014.9mb 52f
12:53am 28 39 mph 1014.9mb 52f
12:26am 27 45 mph 1014.9mb 53f
12:16am 18 33 mph 1015.2mb 54f
12:13am 25 33 mph 1015.2mb 54f
Wed 04/26 11:53pm 21 35 mph 1015.6mb 54f
10:53pm 24 36 mph 1015.9mb 54f
10:23pm 18 38 mph 1015.6mb 54f
9:53pm 24 37 mph 1015.6mb 55f
9:15pm 20 31 mph 1015.9mb 56f
8:53pm 20 36 mph 1015.9mb 57f
8:00pm 27 37 mph 1015.6mb 57f
7:53pm 24 39 mph 1015.6mb 57f
6:53pm 25 40 mph 1015.9mb 57f
5:53pm 24 33 mph 1016.3mb 57f
4:58pm 13 30 mph 1016.6mb 61f
4:53pm 15 30 mph 1016.6mb 61f
3:53pm 17 29 mph 1016.9mb 57f
2:53pm 17 32 mph 1017.3mb 63f
1:53pm 20 30 mph 1018.3mb 63f
1:49pm  -  mph 1018.3mb 63f
12:53pm 7 21 mph 1018.3mb 61f
11:53am 7 20 mph 1018.6mb 59f
10:53am 8 22 mph 1019mb 57f
9:53am 14 22 mph 1018.6mb 52f
8:53am 29 35 mph 1017.3mb 50f
7:53am 30 44 mph 1017.6mb 48f
6:53am 13 16 mph 1017.3mb 45f
5:53am 9 33 mph 1016.9mb 45f
5:17am 16 40 mph 1016.9mb 45f
5:08am 30 40 mph 1016.6mb 45f
4:53am 31 47 mph 1016.3mb 45f
3:53am 37 48 mph 1015.9mb 45f
2:53am 38 47 mph 1016.3mb 46f
1:53am 35 45 mph 1017.3mb 46f
12:53am 39 52 mph 1016.6mb 48f
Tue 04/25 11:53pm 17 30 mph 1018.6mb 48f
10:53pm 31 43 mph 1018.6mb 48f
9:53pm 25 35 mph 1018.3mb 48f
8:53pm 20 28 mph 1017.6mb 48f
7:53pm 22 28 mph 1016.9mb 48f
6:53pm 17 28 mph 1016.6mb 50f
5:53pm 22 35 mph 1016.6mb 52f
4:58pm 13 30 mph 1016.6mb 60f
4:53pm 25 36 mph 1016.3mb 54f
3:53pm 21 35 mph 1016.6mb 54f
2:53pm 15 28 mph 1016.6mb 54f
1:53pm 22 29 mph 1016.9mb 54f
12:53pm 21 36 mph 1016.9mb 48f
12:47pm 28 36 mph 1017.3mb 48f
12:02pm 14 23 mph 1018mb 47f
11:53am 18 25 mph 1017.6mb 46f
10:53am 16 28 mph 1016.9mb 46f
10:48am 23 31 mph 1016.9mb 45f
10:17am 15 24 mph 1016.9mb 42f
10:12am 20 25 mph 1016.9mb 42f
10:10am 13 25 mph 1016.9mb 42f
10:01am 12 24 mph 1016.6mb 41f
9:57am 16 24 mph 1016.6mb 41f
9:53am 9 20 mph 1016.6mb 41f
9:28am 10 27 mph 1016.3mb 39f
9:25am 14 27 mph 1016.3mb 40f
9:13am 12 32 mph 1015.9mb 39f
9:02am 14 25 mph 1015.9mb 39f
8:53am 15 32 mph 1015.6mb 39f
8:47am 20 32 mph 1015.6mb 40f
7:53am 12 31 mph 1015.6mb 41f
6:53am 9 32 mph 1014.2mb 43f
5:53am 27 35 mph 1013.5mb 43f
4:53am 30 44 mph 1013.2mb 43f
3:53am 25 46 mph 1013.9mb 43f
2:53am 25 38 mph 1014.2mb 45f
2:11am 23 33 mph 1014.2mb 45f
2:00am 21 32 mph 1014.6mb 45f
1:53am 20 35 mph 1014.6mb 45f
1:49am 25 35 mph 1014.6mb 45f
1:47am 17 37 mph 1014.6mb 46f
1:27am 21 36 mph 1014.9mb 45f
1:23am 21 36 mph 1014.9mb 45f
12:53am 27 36 mph 1015.2mb 46f
Mon 04/24 11:53pm 23 38 mph 1014.9mb 46f
11:11pm 25 39 mph 1015.2mb 47f
10:53pm 22 36 mph 1015.2mb 46f
9:53pm 24 32 mph 1015.2mb 48f
9:29pm 27 44 mph 1015.9mb 49f
9:18pm 28 36 mph 1015.6mb 49f
8:53pm 30 38 mph 1014.9mb 50f
7:53pm 20 29 mph 1014.9mb 52f
6:53pm 24 37 mph 1014.9mb 54f
5:53pm 32 41 mph 1014.6mb 55f
4:53pm 28 44 mph 1014.9mb 57f
3:53pm 24 37 mph 1015.2mb 57f
2:53pm 33 39 mph 1015.9mb 57f
1:53pm 33 40 mph 1015.9mb 57f
12:53pm 32 39 mph 1015.9mb 57f
11:53am 30
mph
1016.6mb 55f
10:53am 21 31 mph 1016.6mb 54f
9:53am 25 35 mph 1015.9mb 50f
8:53am 32 44 mph 1015.6mb 46f
7:53am 29 36 mph 1015.2mb 45f
6:53am 35 43 mph 1014.6mb 45f